15min,AgWx,beryljct,423,19JUN2020:00:00:00,54.0,12.89,55.3,55.2,55.2,56.0,54.4,30,33,28,0.452,24.5,26.4,23.4,2.499,2.4,7.9,15,4.2,0.00003,0.00010,64.1,66.3,10,0,.,.,13.49,0.00,0.00
15min,AgWx,beryljct,423,19JUN2020:00:15:00,53.7,12.87,54.0,53.7,54.2,55.4,53.3,33,37,30,0.493,25.9,28.1,24.3,2.236,2.7,327,17,3.7,0.00007,0.00014,63.7,66.2,10,0,.,.,13.49,0.00,0.00
15min,AgWx,beryljct,423,19JUN2020:00:30:00,53.4,12.87,53.5,53.6,54.1,55.1,53.2,35,38,31,0.493,26.8,28.7,25.3,3.288,3.5,324,15,4.5,0.00014,0.00024,63.4,66.1,10,0,.,.,13.49,0.00,0.00
15min,AgWx,beryljct,423,19JUN2020:00:45:00,52.8,12.86,53.9,53.0,52.0,53.5,50.4,40,46,35,0.518,28.5,30.5,26.5,3.508,2.6,310,20,4.1,0.00002,0.00007,63.1,66.0,10,0,.,.,13.49,0.00,0.00
15min,AgWx,beryljct,423,19JUN2020:01:00:00,52.5,12.84,49.3,50.5,53.6,54.9,50.5,38,51,33,0.641,28.6,33.2,25.7,0,2.9,297,25,4.2,0.00007,0.00014,62.7,65.9,10,0,.,.,13.49,0.00,0.00
15min,AgWx,beryljct,423,19JUN2020:01:15:00,52.1,12.84,54.4,52.5,53.3,54.1,50.3,37,52,34,0.515,27.8,33.4,26.5,2.083,1.3,345,19,2.8,-0.00015,-0.00018,62.4,65.8,10,0,.,.,13.49,0.00,0.00
15min,AgWx,beryljct,423,19JUN2020:01:30:00,51.7,12.81,50.9,51.2,52.8,54.2,50.4,38,45,34,0.533,27.7,30.4,26.1,1.052,0.9,300,62,2.2,-0.00021,-0.00029,62.1,65.6,10,0,.,.,13.50,0.00,0.00
15min,AgWx,beryljct,423,19JUN2020:01:45:00,51.0,12.81,52.7,52.8,52.2,53.3,50.8,39,44,36,0.505,27.7,29.7,26.7,2.148,1.2,80,81,3.6,-0.00017,-0.00022,61.8,65.5,10,0,.,.,13.50,0.00,0.00
15min,AgWx,beryljct,423,19JUN2020:02:00:00,50.7,12.8,51.7,51.4,51.8,52.8,51.3,39,40,37,0.516,27.7,28.1,27.1,1.666,2.4,63,13,3.6,0.00001,0.00005,61.5,65.4,10,0,.,.,13.50,0.00,0.00
15min,AgWx,beryljct,423,19JUN2020:02:15:00,50.3,12.8,50.3,49.5,50.3,51.4,49.3,44,49,40,0.583,29.4,31.0,27.9,4.713,3.1,72,15,5.6,0.00005,0.00011,61.2,65.2,10,0,.,.,13.50,0.00,0.00
15min,AgWx,beryljct,423,19JUN2020:02:30:00,49.9,12.78,49.3,48.9,49.5,50.2,48.6,49,54,47,0.581,31.2,32.7,30.4,1.359,2.5,146,34,4.7,-0.00002,0.00001,60.9,65.1,10,0,.,.,13.50,0.00,0.00
15min,AgWx,beryljct,423,19JUN2020:02:45:00,49.4,12.78,49.5,48.7,48.9,50.7,47.5,49,52,44,0.573,30.3,31.2,29.7,3.201,3.1,179,13,4.5,0.00004,0.00008,60.6,64.9,10,0,.,.,13.50,0.00,0.00
15min,AgWx,beryljct,423,19JUN2020:03:00:00,49.0,12.76,47.8,47.9,49.3,50.1,47.6,49,56,46,0.619,30.9,32.7,30.1,2.565,2.5,159,37,3.7,-0.00002,0.00000,60.3,64.8,10,0,.,.,13.50,0.00,0.00
15min,AgWx,beryljct,423,19JUN2020:03:15:00,48.4,12.76,48.9,48.3,47.7,48.7,46.4,52,56,48,0.564,30.9,32.7,29.6,1.535,3.5,177,11,5.1,0.00005,0.00010,60.0,64.7,10,0,.,.,13.50,0.00,0.00
15min,AgWx,beryljct,423,19JUN2020:03:30:00,47.9,12.76,49.6,49.4,49.2,49.9,47.3,48,52,46,0.586,30.4,31.1,29.8,2.302,1.7,125,29,3.4,-0.00011,-0.00012,59.7,64.5,10,0,.,.,13.50,0.00,0.00
15min,AgWx,beryljct,423,19JUN2020:03:45:00,47.7,12.74,49.9,49.5,48.9,49.5,48.1,50,53,47,0.567,31.1,32.0,30.1,2.17,2.4,139,20,3.8,-0.00003,-0.00001,59.5,64.4,10,0,.,.,13.50,0.00,0.00
15min,AgWx,beryljct,423,19JUN2020:04:00:00,47.6,12.74,48.4,48.6,49.5,50.3,48.5,48,51,46,0.589,30.6,31.1,30.0,1.644,2.1,88,23,4.5,-0.00006,-0.00005,59.2,64.2,10,0,.,.,13.51,0.00,0.00
15min,AgWx,beryljct,423,19JUN2020:04:15:00,47.4,12.73,48.6,48.2,48.1,48.6,47.4,51,53,49,0.568,30.8,31.1,30.2,1.491,1.1,61,18,2.6,-0.00017,-0.00023,58.9,64.1,10,0,.,.,13.50,0.00,0.00
15min,AgWx,beryljct,423,19JUN2020:04:30:00,46.9,12.73,47.5,47.5,48.1,48.5,47.4,49,52,48,0.581,30.1,30.8,29.6,0.438,1.5,345,18,2.9,0.00019,0.00033,58.7,63.9,10,0,.,.,13.50,0.00,0.00
15min,AgWx,beryljct,423,19JUN2020:04:45:00,46.4,12.72,47.1,46.4,46.9,47.9,45.5,53,58,50,0.537,30.6,32.3,28.8,2.236,1.2,336,10,2.3,0.00014,0.00024,58.5,63.8,10,0,.,.,13.50,0.00,0.00
15min,AgWx,beryljct,423,19JUN2020:05:00:00,46.0,12.71,43.5,46.2,46.7,46.9,46.2,51,59,48,0.628,29.3,32.7,28.1,0.636,1.3,323,12,2.6,0.00017,0.00029,58.2,63.7,11,0,.,.,13.51,0.00,0.00
15min,AgWx,beryljct,423,19JUN2020:05:15:00,45.6,12.7,45.6,45.6,46.1,47.2,44.5,52,60,48,0.552,29.6,32.8,28.5,1.644,1.4,330,12,2.5,0.00018,0.00029,57.9,63.5,10,4,.,.,13.50,0.00,0.00
15min,AgWx,beryljct,423,19JUN2020:05:30:00,45.1,12.72,44.4,43.7,44.5,45.7,43.2,59,63,52,0.612,30.8,32.2,29.0,0.285,0.2,339,0.0,1.6,0.00015,0.00018,57.7,63.4,10,23,.,.,13.51,0.00,0.00
15min,AgWx,beryljct,423,19JUN2020:05:45:00,45.3,12.73,45.6,45.2,45.1,45.9,43.7,57,64,51,0.593,30.6,33.0,28.6,0.614,1.6,322,18,2.7,0.00043,0.00057,57.4,63.2,10,56,.,.,13.51,0.00,0.00
15min,AgWx,beryljct,423,19JUN2020:06:00:00,46.2,12.71,46.5,45.7,46.2,47.2,45.3,54,61,49,0.617,30.6,32.9,29.0,1.973,1.7,343,9.2,4.2,0.00058,0.00074,57.2,63.1,10,91,.,.,13.51,0.00,0.00
15min,AgWx,beryljct,423,19JUN2020:06:15:00,47.7,12.71,47.9,47.7,47.0,47.7,45.7,56,59,52,0.607,32.1,33.3,30.5,2.894,2.3,323,7.4,3.3,0.00078,0.00099,57.0,62.9,10,130,.,.,13.50,0.00,0.00
15min,AgWx,beryljct,423,19JUN2020:06:30:00,49.6,12.72,49.0,49.0,48.1,49.0,47.7,54,59,48,0.582,32.2,34.2,30.2,2.455,2.6,331,12,4.3,0.00102,0.00128,56.8,62.8,10,173,.,.,13.50,0.00,0.00
15min,AgWx,beryljct,423,19JUN2020:06:45:00,51.6,12.75,50.5,50.4,49.5,50.5,48.9,49,53,45,0.595,30.9,32.8,29.0,2.236,2.7,351,10,4.1,0.00128,0.00158,56.6,62.7,10,219,.,.,13.50,0.00,0.00
15min,AgWx,beryljct,423,19JUN2020:07:00:00,53.6,12.74,51.5,50.9,50.7,50.9,50.4,46,49,44,0.567,30.7,32.0,29.3,4.187,3.4,340,6.8,4.6,0.00159,0.00199,56.4,62.5,11,267,.,.,13.50,0.00,0.00
15min,AgWx,beryljct,423,19JUN2020:07:15:00,55.3,12.76,52.7,52.4,51.8,52.4,51.0,44,47,42,0.572,30.6,32.4,29.6,4.012,3.8,339,13,4.8,0.00190,0.00237,56.3,62.4,10,318,.,.,13.50,0.00,0.00
15min,AgWx,beryljct,423,19JUN2020:07:30:00,57.1,12.78,55.1,54.9,53.8,55.1,52.4,41,45,39,0.580,30.8,32.8,29.2,4.779,3.6,354,16,5.6,0.00222,0.00271,56.2,62.2,11,368,.,.,13.50,0.00,0.00
15min,AgWx,beryljct,423,19JUN2020:07:45:00,58.9,12.81,57.0,56.6,55.7,56.6,54.8,40,43,37,0.611,31.4,34.1,29.9,3.464,3.6,12,16,6.2,0.00256,0.00311,56.1,62.1,10,420,.,.,13.49,0.00,0.00
15min,AgWx,beryljct,423,19JUN2020:08:00:00,60.7,12.9,58.4,58.2,57.4,58.4,56.8,40,45,35,0.644,33.0,37.3,30.4,2.258,4.0,41,19,6.3,0.00292,0.00354,56.1,62.0,10,471,.,.,13.49,0.00,0.00
15min,AgWx,beryljct,423,19JUN2020:08:15:00,62.5,13.02,59.6,59.8,59.3,60.0,58.2,37,43,33,0.612,33.3,36.5,30.9,6.138,5.7,40,13,9.1,0.00339,0.00423,56.2,61.8,10,521,.,.,13.48,0.00,0.00
15min,AgWx,beryljct,423,19JUN2020:08:30:00,64.1,13.15,62.2,61.3,60.7,61.3,59.8,35,39,32,0.671,32.9,35.9,30.8,5.48,5.3,30,12,8.2,0.00372,0.00458,56.3,61.7,10,568,.,.,13.48,0.00,0.00
15min,AgWx,beryljct,423,19JUN2020:08:45:00,65.7,13.39,62.5,62.3,62.2,63.0,61.3,35,39,31,0.632,34.4,37.6,30.7,5.261,6.1,43,18,11.5,0.00410,0.00508,56.4,61.6,10,616,.,.,13.48,0.00,0.00
15min,AgWx,beryljct,423,19JUN2020:09:00:00,67.0,13.65,63.5,64.0,63.0,64.0,62.3,34,38,31,0.707,33.9,37.1,31.4,9.54,8.2,48,14,12.0,0.00455,0.00577,56.7,61.5,10,662,.,.,13.48,0.00,0.00
15min,AgWx,beryljct,423,19JUN2020:09:15:00,67.9,13.78,64.4,64.6,64.3,65.1,63.7,30,37,26,0.594,32.6,37.3,28.7,9.14,8.6,36,16,13.3,0.00494,0.00629,57.0,61.4,10,705,.,.,13.48,0.00,0.00
15min,AgWx,beryljct,423,19JUN2020:09:30:00,69.0,14.09,65.5,65.6,65.3,66.0,64.6,29,34,25,0.651,32.5,36.6,28.8,6.905,8.3,41,19,11.7,0.00523,0.00661,57.3,61.3,10,747,.,.,13.47,0.00,0.00
15min,AgWx,beryljct,423,19JUN2020:09:45:00,69.9,14.16,67.9,66.2,65.9,66.3,65.4,28,36,23,0.663,32.2,38.1,27.4,5.393,8.6,45,26,14.7,0.00552,0.00697,57.7,61.2,10,787,.,.,13.47,0.00,0.00
15min,AgWx,beryljct,423,19JUN2020:10:00:00,70.7,14.06,66.6,66.6,66.8,67.7,66.1,28,33,23,0.525,33.0,37.1,28.1,7.651,8.9,50,14,12.1,0.00580,0.00731,58.1,61.1,10,824,.,.,13.47,0.00,0.00
15min,AgWx,beryljct,423,19JUN2020:10:15:00,71.6,14.07,68.3,68.2,67.6,68.5,66.6,27,33,23,0.676,32.4,37.3,28.3,9.71,7.9,49,19,12.9,0.00603,0.00749,58.6,61.1,10,859,.,.,13.47,0.00,0.00
15min,AgWx,beryljct,423,19JUN2020:10:30:00,72.5,14.11,67.9,68.9,68.4,69.4,67.7,25,30,21,0.598,31.5,36.2,26.7,4.779,8.9,43,18,14.0,0.00636,0.00800,59.1,61.1,10,891,.,.,13.47,0.00,0.00
15min,AgWx,beryljct,423,19JUN2020:10:45:00,73.4,14.07,70.6,69.5,69.1,69.5,68.6,25,29,19,0.624,31.5,35.5,25.6,5.546,7.7,58,20,12.7,0.00650,0.00802,59.6,61.0,10,920,.,.,13.47,0.00,0.00
15min,AgWx,beryljct,423,19JUN2020:11:00:00,74.1,14.09,70.7,70.4,70.0,70.9,69.1,23,30,19,0.620,30.1,37.4,25.4,7.914,7.9,38,30,12.0,0.00676,0.00836,60.2,61.0,10,946,.,.,13.47,0.00,0.00
15min,AgWx,beryljct,423,19JUN2020:11:15:00,75.0,13.98,72.3,71.3,70.8,71.5,70.1,24,30,18,0.625,31.9,37.9,26.0,2.85,7.2,40,26,12.7,0.00690,0.00844,60.9,61.0,10,969,.,.,13.47,0.00,0.00
15min,AgWx,beryljct,423,19JUN2020:11:30:00,75.8,14,72.4,71.9,71.5,72.6,70.9,24,29,18,0.762,32.2,37.7,26.3,7.936,5.7,63,33,10.5,0.00667,0.00799,61.6,61.1,10,938,.,.,13.47,0.00,0.00
15min,AgWx,beryljct,423,19JUN2020:11:45:00,76.7,13.96,73.1,72.9,72.3,73.2,71.3,23,35,18,0.683,32.6,43.4,25.8,7.826,5.1,60,29,9.1,0.00705,0.00833,62.2,61.1,10,1005,.,.,13.46,0.00,0.00
15min,AgWx,beryljct,423,19JUN2020:12:00:00,77.6,13.63,73.2,73.1,73.0,73.9,72.6,21,27,16,0.601,30.9,38.1,24.7,2.916,5.5,46,33,10.8,0.00723,0.00863,63.0,61.1,10,1018,.,.,13.46,0.00,0.00
15min,AgWx,beryljct,423,19JUN2020:12:15:00,78.9,13.51,75.3,74.3,74.0,75.1,73.1,20,28,16,0.517,29.7,39.8,25.1,0.921,2.2,100,57,7.7,0.00599,0.00680,63.8,61.2,10,852,.,.,13.46,0.00,0.00
15min,AgWx,beryljct,423,19JUN2020:12:30:00,80.3,13.46,75.2,74.4,74.9,76.0,74.0,21,31,16,0.490,32.1,41.8,25.9,4.056,4.2,65,55,8.6,0.00730,0.00851,64.5,61.3,10,1030,.,.,13.46,0.00,0.00
15min,AgWx,beryljct,423,19JUN2020:12:45:00,81.0,13.57,74.9,74.4,74.5,75.2,73.7,20,27,16,0.592,30.4,39.2,25.2,4.494,4.9,69,43,10.0,0.00736,0.00870,65.4,61.5,10,1031,.,.,13.46,0.00,0.00
15min,AgWx,beryljct,423,19JUN2020:13:00:00,81.8,13.49,75.0,75.8,75.4,76.4,74.4,19,27,15,0.580,29.6,39.2,25.1,4.472,3.3,86,91,7.8,0.00726,0.00835,66.3,61.6,10,1030,.,.,13.46,0.00,0.00
15min,AgWx,beryljct,423,19JUN2020:13:15:00,82.5,13.48,77.3,77.7,76.2,77.7,75.1,17,26,13,0.486,28.4,39.7,22.2,1.469,3.9,360,49,10.5,0.00733,0.00855,67.1,61.7,10,1024,.,.,13.46,0.00,0.00
15min,AgWx,beryljct,423,19JUN2020:13:30:00,83.1,13.46,78.1,77.9,77.2,78.2,76.5,17,23,13,0.601,29.3,37.2,23.0,4.669,5.4,301,30,10.9,0.00750,0.00898,67.9,61.8,10,1014,.,.,13.46,0.01,0.00
15min,AgWx,beryljct,423,19JUN2020:13:45:00,83.2,13.52,77.6,77.0,77.5,78.4,76.8,16,21,13,0.420,27.0,34.6,22.8,2.938,6.1,324,54,11.8,0.00746,0.00909,68.8,62.0,10,990,.,.,13.46,0.00,0.00
15min,AgWx,beryljct,423,19JUN2020:14:00:00,83.1,13.44,77.5,77.6,77.7,78.5,77.0,15,20,13,0.419,26.0,33.3,22.4,3.223,7.5,355,20,15.6,0.00760,0.00947,69.5,62.2,10,982,.,.,13.46,0.00,0.00
15min,AgWx,beryljct,423,19JUN2020:14:15:00,83.1,13.44,79.4,78.5,78.0,79.2,77.2,17,23,13,0.488,29.1,36.5,23.0,5.546,9.3,18,16,14.5,0.00767,0.00977,70.2,62.5,10,960,.,.,13.46,0.00,0.00
15min,AgWx,beryljct,423,19JUN2020:14:30:00,83.3,13.4,77.5,78.9,78.5,79.2,77.8,16,22,13,0.502,28.1,36.6,23.2,3.639,5.0,293,47,11.5,0.00701,0.00843,70.9,62.7,10,938,.,.,13.46,0.00,0.00
15min,AgWx,beryljct,423,19JUN2020:14:45:00,84.3,13.39,78.1,79.0,79.5,80.6,78.2,17,23,13,0.544,30.3,38.6,24.2,7.147,5.4,9.1,45,11.8,0.00688,0.00836,71.5,62.9,10,902,.,.,13.46,0.00,0.00
15min,AgWx,beryljct,423,19JUN2020:15:00:00,85.1,13.36,78.4,79.2,78.6,79.7,78.0,18,25,14,0.863,32.0,40.8,24.7,10.92,5.8,136,35,11.4,0.00674,0.00825,72.1,63.1,10,884,.,.,13.46,0.00,0.00
15min,AgWx,beryljct,423,19JUN2020:15:15:00,85.2,13.35,78.1,77.9,78.1,78.9,77.8,22,28,17,0.701,36.3,42.4,29.4,7.366,8.8,104,13,17.8,0.00682,0.00871,72.6,63.4,10,850,.,.,13.46,0.00,0.00
15min,AgWx,beryljct,423,19JUN2020:15:30:00,84.9,13.36,77.9,77.8,78.1,78.4,77.8,23,29,16,0.677,36.7,43.6,27.8,11.97,8.7,90,17,14.8,0.00625,0.00807,73.2,63.7,10,766,.,.,13.46,0.00,0.00
15min,AgWx,beryljct,423,19JUN2020:15:45:00,84.8,13.41,79.5,78.9,78.3,79.1,77.8,21,27,14,0.586,35.0,41.2,24.9,4.077,6.3,91,31,10.2,0.00546,0.00694,73.6,64.0,10,692,.,.,13.46,0.00,0.00
15min,AgWx,beryljct,423,19JUN2020:16:00:00,85.4,13.36,79.1,78.9,79.0,79.7,78.6,20,26,14,0.623,33.8,41.7,24.9,3.924,6.2,124,24,12.7,0.00579,0.00729,74.1,64.2,10,736,.,.,13.46,0.00,0.00
15min,AgWx,beryljct,423,19JUN2020:16:15:00,85.8,13.33,78.7,78.6,78.9,79.2,78.5,22,27,15,0.670,36.3,42.2,27.8,8.88,6.9,86,27,11.2,0.00564,0.00720,74.5,64.5,10,702,.,.,13.46,0.00,0.00
15min,AgWx,beryljct,423,19JUN2020:16:30:00,86.0,13.35,79.2,79.3,79.3,79.7,78.6,19,30,13,0.516,33.5,45.4,24.4,1.754,3.8,109,27,10.4,0.00454,0.00559,74.8,64.8,10,612,.,.,13.47,0.00,0.00
15min,AgWx,beryljct,423,19JUN2020:16:45:00,86.2,13.36,79.2,79.2,79.1,79.5,78.9,21,29,15,0.603,35.6,43.6,27.8,4.253,5.2,106,15,10.6,0.00466,0.00592,75.1,65.0,10,597,.,.,13.46,0.00,0.00
15min,AgWx,beryljct,423,19JUN2020:17:00:00,86.0,13.32,78.5,78.9,79.1,79.7,78.6,22,29,15,0.925,36.3,44.0,27.8,4.867,5.6,85,21,9.1,0.00443,0.00572,75.4,65.3,10,554,.,.,13.46,0.00,0.00
15min,AgWx,beryljct,423,19JUN2020:17:15:00,85.7,13.32,79.9,79.4,79.1,79.5,78.5,22,28,16,0.579,36.5,43.0,30.0,4.626,5.7,131,25,8.6,0.00398,0.00526,75.5,65.5,10,488,.,.,13.46,0.00,0.00
15min,AgWx,beryljct,423,19JUN2020:17:30:00,85.4,13.34,78.3,78.8,79.3,79.8,78.7,20,30,14,0.996,34.9,44.5,25.9,3.529,4.6,119,26,9.6,0.00356,0.00465,75.7,65.8,10,458,.,.,13.46,0.00,0.00
15min,AgWx,beryljct,423,19JUN2020:17:45:00,85.1,13.25,79.5,79.8,79.2,80.3,78.5,21,31,15,0.659,36.3,45.2,27.4,2.083,3.7,138,22,7.5,0.00302,0.00391,75.8,66.1,10,408,.,.,13.46,0.00,0.00
15min,AgWx,beryljct,423,19JUN2020:18:00:00,85.1,13.16,80.4,81.0,79.5,81.1,78.9,20,28,15,0.589,35.0,43.5,28.1,0,2.1,103,20,3.9,0.00230,0.00287,75.8,66.3,10,358,.,.,13.47,0.00,0.00
15min,AgWx,beryljct,423,19JUN2020:18:15:00,85.2,13.11,79.3,79.3,80.1,81.0,79.3,21,29,13,0.801,36.1,44.6,24.4,0.965,1.5,319,23,3.5,0.00180,0.00221,75.8,66.5,10,311,.,.,13.46,0.00,0.00
15min,AgWx,beryljct,423,19JUN2020:18:30:00,84.8,13.1,79.3,78.0,78.2,79.7,76.9,23,33,15,0.491,36.7,47.0,26.6,3.771,4.7,283,16,9.5,0.00216,0.00314,75.7,66.7,10,262,.,.,13.47,0.00,0.00
15min,AgWx,beryljct,423,19JUN2020:18:45:00,83.5,13.07,79.3,78.6,77.9,79.9,76.3,19,28,11,0.577,32.4,41.3,21.2,4.253,3.9,278,22,8.3,0.00164,0.00249,75.6,66.9,10,212,.,.,13.47,0.00,0.00
15min,AgWx,beryljct,423,19JUN2020:19:00:00,82.2,13.05,76.1,76.5,76.7,78.7,75.8,20,25,16,0.596,32.8,37.4,28.6,6.314,6.8,282,13,10.1,0.00195,0.00326,75.4,67.1,10,168,.,.,13.47,0.00,0.00
15min,AgWx,beryljct,423,19JUN2020:19:15:00,80.6,13.04,74.8,74.8,75.8,77.3,74.4,20,24,15,0.637,31.9,35.8,26.1,6.248,6.6,273,13,9.7,0.00115,0.00158,75.2,67.3,10,121,.,.,13.47,0.00,0.00
15min,AgWx,beryljct,423,19JUN2020:19:30:00,78.5,13.04,75.2,74.8,74.3,75.4,73.6,21,25,18,0.527,31.7,36.0,27.9,3.946,5.3,255,6.8,6.9,0.00075,0.00109,74.9,67.4,10,45,.,.,13.48,0.01,0.00
15min,AgWx,beryljct,423,19JUN2020:19:45:00,75.9,13.02,70.6,71.9,72.8,74.8,70.6,22,29,16,0.684,31.4,38.4,24.2,4.713,3.7,226,8.5,5.1,0.00039,0.00062,74.6,67.6,11,16,.,.,13.48,0.00,0.00
15min,AgWx,beryljct,423,19JUN2020:20:00:00,73.4,13.02,72.4,71.5,69.9,71.7,65.7,25,39,20,0.580,32.2,41.0,27.9,6.007,6.1,212,8.3,8.5,0.00065,0.00092,74.2,67.7,10,7,.,.,13.48,0.00,0.00
15min,AgWx,beryljct,423,19JUN2020:20:15:00,72.0,13.02,69.6,70.5,70.7,72.0,69.8,24,26,20,0.617,31.8,33.6,29.1,6.314,6.6,223,6.7,8.9,0.00072,0.00101,73.9,67.8,10,2,.,.,13.48,0.00,0.00
15min,AgWx,beryljct,423,19JUN2020:20:30:00,71.1,13,70.3,70.6,70.8,71.3,69.7,23,26,22,0.605,31.4,33.5,29.2,6.599,7.7,222,5.1,9.7,0.00083,0.00114,73.4,67.9,10,0,.,.,13.48,0.00,0.00
15min,AgWx,beryljct,423,19JUN2020:20:45:00,70.3,13,70.9,69.8,69.7,70.6,69.2,25,26,23,0.580,32.2,33.2,30.5,8.11,6.8,227,4.3,8.7,0.00071,0.00099,73.0,68.0,10,0,.,.,13.48,0.00,0.00
15min,AgWx,beryljct,423,19JUN2020:21:00:00,69.8,12.99,67.5,68.6,69.9,70.6,68.6,23,25,21,0.571,30.9,32.3,28.9,6.007,7.3,217,14,10.1,0.00078,0.00108,72.6,68.1,10,0,.,.,13.48,0.00,0.00
15min,AgWx,beryljct,423,19JUN2020:21:15:00,68.8,12.98,66.0,65.7,66.0,68.4,64.9,22,24,20,0.481,25.8,28.4,24.1,6.533,6.2,175,10,9.1,0.00063,0.00088,72.1,68.1,10,0,.,.,13.48,0.00,0.00
15min,AgWx,beryljct,423,19JUN2020:21:30:00,67.3,12.97,63.1,63.0,64.1,66.0,62.3,26,33,21,0.582,28.0,32.7,24.2,2.981,4.2,235,78,6.9,0.00035,0.00054,71.6,68.1,10,0,.,.,13.48,0.00,0.00
15min,AgWx,beryljct,423,19JUN2020:21:45:00,65.8,12.97,61.3,67.0,63.5,67.2,61.6,27,32,20,0.519,28.8,31.8,24.3,0.767,2.0,332,55,4.4,-0.00002,0.00003,71.2,68.1,10,0,.,.,13.48,0.00,0.00
15min,AgWx,beryljct,423,19JUN2020:22:00:00,64.8,12.96,61.3,61.1,63.0,66.4,61.0,29,34,23,0.605,29.9,32.3,26.2,3.464,2.0,90,33,5.8,-0.00003,0.00001,70.8,68.1,10,0,.,.,13.49,0.00,0.00
15min,AgWx,beryljct,423,19JUN2020:22:15:00,63.5,12.96,59.1,59.1,59.9,62.4,57.6,38,51,28,0.759,34.1,40.5,28.9,0.46,1.7,144,66,4.4,-0.00009,-0.00008,70.4,68.1,10,0,.,.,13.48,0.00,0.00
15min,AgWx,bigpiney,439,19JUN2020:00:00:00,46.1,12.71,41.8,41.9,41.5,42.2,40.6,77,80,75,0.687,34.9,35.2,34.5,1.82,1.5,221,16,3.7,-0.00018,-0.00023,52.2,47.8,55,0,0,0.0,7.74,0.00,0.00
15min,AgWx,bigpiney,439,19JUN2020:00:15:00,45.4,12.7,40.2,39.2,40.0,41.8,38.7,83,89,77,0.719,35.1,36.1,34.1,1.688,2.9,142,38,5.2,-0.00012,-0.00014,52.1,47.9,55,0,0,0.0,7.74,0.00,0.00
15min,AgWx,bigpiney,439,19JUN2020:00:30:00,44.8,12.69,39.8,39.8,41.1,42.4,39.3,79,88,74,0.703,35.1,36.3,34.5,0.175,3.1,139,31,5.1,-0.00010,-0.00011,52.1,47.9,55,0,0,0.0,7.74,0.00,0.00
15min,AgWx,bigpiney,439,19JUN2020:00:45:00,44.3,12.69,40.0,39.5,39.7,40.1,39.3,85,87,83,0.716,35.6,36.0,35.3,1.907,1.3,122,9.5,2.4,-0.00020,-0.00027,52.0,47.9,55,0,0,0.0,7.74,0.00,0.00
15min,AgWx,bigpiney,439,19JUN2020:01:00:00,43.8,12.68,40.8,40.2,39.9,40.2,39.5,87,88,83,0.703,36.3,36.5,35.5,1.841,1.5,190,26,2.1,-0.00019,-0.00025,52.0,47.9,55,0,0,0.0,7.74,0.00,0.00
15min,AgWx,bigpiney,439,19JUN2020:01:15:00,43.2,12.68,38.5,38.5,39.7,40.5,38.5,82,85,81,0.671,34.7,35.4,34.2,2.543,2.3,254,14,3.2,-0.00014,-0.00018,51.9,47.9,55,0,0,0.0,7.74,0.00,0.00
15min,AgWx,bigpiney,439,19JUN2020:01:30:00,42.7,12.67,38.3,37.5,37.9,38.6,37.4,85,86,84,0.645,33.7,34.4,33.2,3.047,2.4,260,20,3.4,-0.00014,-0.00017,51.8,47.9,55,0,0,0.0,7.74,0.00,0.00
15min,AgWx,bigpiney,439,19JUN2020:01:45:00,42.1,12.66,37.2,36.8,37.0,37.8,36.6,86,87,84,0.641,33.2,33.5,33.1,2.192,2.7,250,18,3.6,-0.00013,-0.00016,51.7,47.9,55,0,0,0.0,7.74,0.00,0.00
15min,AgWx,bigpiney,439,19JUN2020:02:00:00,41.4,12.65,36.7,36.7,36.9,37.3,36.6,85,87,84,0.630,32.9,33.3,32.7,4.516,3.6,226,11,5.2,-0.00010,-0.00011,51.6,47.9,55,0,0,0.0,7.74,0.00,0.00
15min,AgWx,bigpiney,439,19JUN2020:02:15:00,40.9,12.65,37.2,36.9,36.8,37.0,36.6,85,86,84,0.625,32.6,32.8,32.5,4.472,4.1,223,6.8,5.7,-0.00008,-0.00009,51.5,48.0,55,0,0,0.0,7.74,0.00,0.00
15min,AgWx,bigpiney,439,19JUN2020:02:30:00,40.5,12.63,35.6,35.7,35.9,36.9,35.2,86,88,84,0.607,32.2,32.7,31.6,2.828,3.7,203,9.8,5.3,-0.00009,-0.00011,51.4,47.9,55,0,0,0.0,7.74,0.00,0.00
15min,AgWx,bigpiney,439,19JUN2020:02:45:00,40.1,12.62,37.9,37.6,36.7,37.7,35.5,84,86,82,0.629,32.3,32.8,31.7,4.099,3.4,237,11,5.2,-0.00010,-0.00011,51.3,48.0,55,0,0,0.0,7.74,0.00,0.00
15min,AgWx,bigpiney,439,19JUN2020:03:00:00,39.8,12.61,37.4,37.7,37.7,38.0,37.6,83,84,82,0.629,33.0,33.4,32.6,1.82,2.7,251,24,5.0,-0.00012,-0.00015,51.2,48.0,55,0,0,0.0,7.74,0.00,0.00
15min,AgWx,bigpiney,439,19JUN2020:03:15:00,39.6,12.61,34.9,35.1,36.9,38.4,34.8,82,87,79,0.596,32.0,32.8,30.7,3.661,1.0,148,46,3.8,-0.00020,-0.00029,51.2,47.9,55,0,0,0.0,7.74,0.00,0.00
15min,AgWx,bigpiney,439,19JUN2020:03:30:00,39.2,12.6,34.8,34.6,35.1,35.7,34.6,86,87,84,0.589,31.3,31.7,31.1,3.661,3.5,199,9.3,4.3,-0.00010,-0.00011,51.0,47.9,55,0,0,0.0,7.74,0.00,0.00
15min,AgWx,bigpiney,439,19JUN2020:03:45:00,38.8,12.59,33.8,33.6,34.4,34.9,33.6,87,89,86,0.580,31.0,31.4,30.4,4.867,4.1,199,11,5.7,-0.00009,-0.00010,51.0,47.9,55,0,0,0.0,7.74,0.00,0.00
15min,AgWx,bigpiney,439,19JUN2020:04:00:00,38.4,12.57,34.0,33.8,33.4,33.8,33.2,90,90,89,0.581,30.7,31.0,30.5,2.916,3.8,218,9.0,5.2,-0.00010,-0.00012,50.8,48.0,55,0,0,0.0,7.74,0.00,0.00
15min,AgWx,bigpiney,439,19JUN2020:04:15:00,37.9,12.56,33.6,33.3,33.4,33.8,33.1,89,91,88,0.582,30.6,30.9,30.3,4.187,4.0,218,9.3,5.6,-0.00010,-0.00011,50.7,47.9,55,0,0,0.0,7.74,0.00,0.00
15min,AgWx,bigpiney,439,19JUN2020:04:30:00,37.5,12.56,34.2,33.6,33.4,34.1,32.9,91,92,89,0.585,30.9,31.5,30.3,2.916,2.7,230,15,4.4,-0.00013,-0.00016,50.6,48.0,55,0,0,0.0,7.74,0.00,0.00
15min,AgWx,bigpiney,439,19JUN2020:04:45:00,37.2,12.55,35.3,35.1,34.5,35.7,33.3,88,92,84,0.596,31.3,32.1,30.6,2.039,2.1,247,23,2.9,-0.00014,-0.00018,50.5,48.0,55,3,0,0.0,7.74,0.00,0.00
15min,AgWx,bigpiney,439,19JUN2020:05:00:00,36.9,12.56,33.9,33.5,34.3,35.3,33.4,87,90,85,0.587,30.8,31.4,30.3,0.965,2.1,319,12,4.3,-0.00010,-0.00008,50.4,47.9,55,7,0,0.0,7.74,0.00,0.00
15min,AgWx,bigpiney,439,19JUN2020:05:15:00,36.7,12.56,32.3,32.3,33.5,34.0,32.3,90,91,89,0.561,30.9,31.4,29.8,1.513,1.9,227,43,3.6,-0.00003,-0.00000,50.3,48.0,55,13,0,0.0,7.74,0.00,0.00
15min,AgWx,bigpiney,439,19JUN2020:05:30:00,36.5,12.6,34.6,34.0,32.8,34.0,32.1,92,93,91,0.612,30.8,32.0,29.8,0.899,1.7,225,17,2.8,-0.00013,-0.00012,50.2,47.9,55,62,0,0.0,7.74,0.00,0.00
15min,AgWx,bigpiney,439,19JUN2020:05:45:00,36.9,12.61,37.0,36.6,35.4,36.6,34.1,91,92,89,0.650,33.0,34.1,32.1,0.526,0.4,214,9.7,1.4,0.00005,0.00006,50.1,48.0,55,106,0,0.0,7.74,0.00,0.00
15min,AgWx,bigpiney,439,19JUN2020:06:00:00,38.0,12.63,39.0,38.6,37.9,38.6,36.6,85,89,82,0.662,33.8,34.5,33.2,0.986,0.5,207,11,1.8,0.00024,0.00027,50.0,48.0,55,143,0,0.0,7.74,0.00,0.00
15min,AgWx,bigpiney,439,19JUN2020:06:15:00,39.7,12.65,41.1,40.4,39.4,40.4,38.7,83,85,81,0.711,34.6,35.9,33.8,0,1.6,205,15,2.7,0.00048,0.00055,49.9,48.0,55,185,0,0.0,7.74,0.00,0.00
15min,AgWx,bigpiney,439,19JUN2020:06:30:00,41.7,12.67,42.6,42.8,41.8,42.8,40.4,79,83,75,0.709,35.7,36.4,35.1,1.162,0.6,268,33,2.0,0.00073,0.00079,49.7,48.0,55,229,0,0.0,7.74,0.00,0.00
15min,AgWx,bigpiney,439,19JUN2020:06:45:00,43.8,12.7,43.9,43.6,43.4,43.8,42.7,76,78,72,0.707,36.3,37.2,35.0,2.411,1.6,341,19,3.3,0.00101,0.00114,49.7,47.9,55,277,0,0.0,7.74,0.00,0.00
15min,AgWx,bigpiney,439,19JUN2020:07:00:00,45.9,12.74,47.3,45.5,44.6,45.5,43.6,71,76,68,0.718,35.8,37.0,35.0,0,2.0,338,25,3.9,0.00130,0.00147,49.5,47.9,55,325,0,0.0,7.74,0.00,0.00
15min,AgWx,bigpiney,439,19JUN2020:07:15:00,47.9,12.77,47.0,47.2,46.3,47.4,45.6,66,71,62,0.693,35.8,37.7,34.5,1.03,0.9,344,33,2.5,0.00160,0.00176,49.4,47.9,55,374,0,0.0,7.74,0.00,0.00
15min,AgWx,bigpiney,439,19JUN2020:07:30:00,50.0,12.94,50.4,48.4,47.6,48.4,47.1,61,64,58,0.732,34.8,36.6,33.6,1.556,0.6,274,76,1.8,0.00191,0.00207,49.3,47.9,55,422,0,0.0,7.74,0.00,0.00
15min,AgWx,bigpiney,439,19JUN2020:07:45:00,52.0,13.23,48.9,49.3,48.8,49.3,48.3,61,64,58,0.725,35.8,37.3,34.6,1.71,1.1,110,26,2.9,0.00223,0.00245,49.2,47.9,55,472,0,0.0,7.74,0.00,0.00
15min,AgWx,bigpiney,439,19JUN2020:08:00:00,53.5,13.51,49.6,49.5,49.5,50.4,48.7,58,62,55,0.660,35.6,37.7,33.9,1.885,1.5,123,43,3.6,0.00254,0.00281,49.1,47.9,55,520,0,0.0,7.74,0.00,0.00
15min,AgWx,bigpiney,439,19JUN2020:08:15:00,54.9,13.79,49.9,50.6,50.2,51.2,49.4,58,61,55,0.688,36.0,37.8,34.1,1.337,1.5,124,40,4.4,0.00283,0.00313,49.0,47.8,55,567,0,0.0,7.74,0.00,0.00
15min,AgWx,bigpiney,439,19JUN2020:08:30:00,56.2,14.49,51.9,51.6,51.4,52.0,50.4,57,61,54,0.745,36.7,38.4,34.5,1.271,1.2,103,44,4.7,0.00315,0.00345,48.9,47.8,55,612,0,0.0,7.74,0.00,0.00
15min,AgWx,bigpiney,439,19JUN2020:08:45:00,57.7,14.49,52.4,53.9,52.6,54.0,51.6,58,62,53,0.816,38.2,40.3,35.8,1.688,1.7,75,42,4.3,0.00346,0.00381,48.9,47.9,55,656,0,0.0,7.74,0.00,0.00
15min,AgWx,bigpiney,439,19JUN2020:09:00:00,58.7,14.48,53.0,53.7,53.7,54.3,53.1,57,62,53,0.767,39.1,41.3,36.3,5.239,3.7,95,25,6.4,0.00374,0.00422,48.8,47.9,55,698,0,0.0,7.74,0.00,0.00
15min,AgWx,bigpiney,439,19JUN2020:09:15:00,59.6,14.46,52.9,53.9,53.8,54.8,53.1,53,57,47,0.726,37.2,39.5,33.8,4.757,2.9,93,30,6.4,0.00401,0.00449,48.7,47.8,55,739,0,0.0,7.74,0.00,0.00
15min,AgWx,bigpiney,439,19JUN2020:09:30:00,60.2,14.33,55.0,55.1,54.5,55.2,53.7,52,57,48,0.788,37.2,39.5,35.0,4.056,4.4,89,27,7.0,0.00426,0.00487,48.7,47.8,55,779,0,0.0,7.74,0.00,0.00
15min,AgWx,bigpiney,439,19JUN2020:09:45:00,60.8,14.29,55.9,56.0,55.5,56.3,54.7,51,57,47,0.815,37.7,41.3,34.9,5.722,3.7,88,25,6.9,0.00467,0.00526,48.6,47.8,55,836,0,0.0,7.74,0.00,0.00